Surface/Precipitation History
02/08/2018 18:13  to  2/9/2018 18:13
Change End Date:
Date/Time
(MST)
Sf
Temp Chem Water Layer Surface Precipitation
Sfc Pvt Sub Frz Factor Pct Dpth DpthThk IcePct Cond Salin FI Type Intens Accum Rate
02/09/2018 18:07 Ice Warning 8.8F - - 32F 5 0% - - 100% 0 mhos 44 - None None 0.17 in 0.0 iph
02/09/2018 17:59 Ice Warning 9.1F - - 32F 5 0% - - 100% 0 mhos 45 - Snow Slight 0.16 in 0.0 iph
02/09/2018 17:57 Ice Warning 9.1F - - 32F 5 0% - - 100% 0 mhos 46 - Snow Slight 0.16 in 0.0 iph
02/09/2018 17:47 Ice Warning 9.7F - - 32F 10 0% - - 100% 0 mhos 50 - Snow Slight 0.17 in 0.0 iph
02/09/2018 17:44 Ice Warning 9.9F - - 32F 10 0% - - 100% 0 mhos 50 - Snow Slight 0.17 in 0.0 iph
02/09/2018 17:37 Ice Warning 10.6F - - 32F 15 0% - - 100% 0 mhos 75 - Snow Slight 0.17 in 0.0 iph
02/09/2018 17:29 Ice Warning 11.3F - - 32F 15 0% - - 100% 0 mhos 75 - Snow Slight 0.17 in 0.0 iph
02/09/2018 17:27 Ice Warning 11.7F - - 32F 15 0% - - 100% 0 mhos 75 - Snow Slight 0.17 in 0.0 iph
02/09/2018 17:17 Ice Warning 13.1F - - 32F 15 0% - - 100% 0 mhos 79 - Snow Slight 0.17 in 0.0 iph
02/09/2018 17:14 Ice Warning 13.5F - - 32F 15 0% - - 100% 0 mhos 80 - Snow Slight 0.17 in 0.0 iph
02/09/2018 17:07 Ice Warning 14.5F - - 32F 15 0% - - 100% 0 mhos 98 - Snow Slight 0.17 in 0.0 iph
02/09/2018 16:59 Ice Warning 15.6F - - 32F 15 0% - - 100% 0 mhos 92 - Snow Slight 0.17 in 0.0 iph
02/09/2018 16:57 Ice Warning 16.0F - - 32F 15 0% - - 100% 0 mhos 90 - Snow Slight 0.17 in 0.0 iph
02/09/2018 16:47 Ice Warning 16.9F - - 32F 20 0% - - 100% 0 mhos 83 - Snow Slight 0.19 in 0.0 iph
02/09/2018 16:44 Ice Warning 17.2F - - 32F 20 0% - - 100% 0 mhos 80 - Snow Slight 0.19 in 0.0 iph
Date/Time
(MST)
Sf
Temp Chem Water Layer Surface Precipitation
Sfc Pvt Sub Frz Factor Pct Dpth DpthThk IcePct Cond Salin FI Type Intens Accum Rate
02/09/2018 16:37 Ice Warning 17.8F - - 32F 20 0% - - 100% 0 mhos 75 - Snow Slight 0.19 in 0.0 iph
02/09/2018 16:29 Ice Warning 18.0F - - 32F 20 0% - - 100% 0 mhos 71 - Snow Slight 0.19 in 0.0 iph
02/09/2018 16:27 Ice Warning 18.3F - - 32F 20 0% - - 100% 0 mhos 69 - Snow Slight 0.19 in 0.0 iph
02/09/2018 16:17 Ice Warning 19.6F - - 32F 20 0% - - 100% 0 mhos 62 - Snow Slight 0.19 in 0.0 iph
02/09/2018 16:14 Ice Warning 19.9F - - 32F 20 0% - - 100% 0 mhos 60 - Snow Slight 0.19 in 0.0 iph
02/09/2018 16:07 Ice Warning 20.1F - - 32F 15 0% - - 100% 0 mhos 59 - Snow Slight 0.19 in 0.0 iph
02/09/2018 15:59 Ice Warning 21.0F - - 32F 15 0% - - 100% 0 mhos 55 - Snow Slight 0.19 in 0.0 iph
02/09/2018 15:57 Ice Warning 21.0F - - 32F 15 0% - - 100% 0 mhos 55 - Snow Slight 0.19 in 0.0 iph
02/09/2018 15:47 Ice Warning 21.4F - - 32F 15 0% - - 100% 0 mhos 54 - Snow Slight 0.19 in 0.0 iph
02/09/2018 15:44 Ice Warning 21.6F - - 32F 15 0% - - 100% 0 mhos 53 - Snow Slight 0.19 in 0.0 iph
02/09/2018 15:37 Ice Warning 23.2F - - 32F 15 0% - - 100% 0 mhos 46 - Snow Slight 0.19 in 0.0 iph
02/09/2018 15:29 Ice Warning 24.1F - - 32F 20 0% - - 100% 0 mhos 42 - Snow Slight 0.19 in 0.0 iph
02/09/2018 15:27 Ice Warning 24.6F - - 32F 20 0% - - 100% 0 mhos 40 - Snow Slight 0.19 in 0.0 iph
02/09/2018 15:17 Ice Warning 27.1F - - 32F 15 0% - - 100% 0 mhos 32 - Snow Slight 0.19 in 0.0 iph
02/09/2018 15:14 Ice Warning 27.3F - - 32F 15 0% - - 100% 0 mhos 32 - Snow Slight 0.19 in 0.0 iph
Date/Time
(MST)
Sf
Temp Chem Water Layer Surface Precipitation
Sfc Pvt Sub Frz Factor Pct Dpth DpthThk IcePct Cond Salin FI Type Intens Accum Rate
02/09/2018 15:07 Ice Warning 27.5F - - 32F 15 0% - - 100% 0 mhos 36 - Snow Slight 0.18 in 0.0 iph
02/09/2018 14:59 Ice Warning 27.5F - - 32F 15 0% - - 99% 0 mhos 52 - Snow Slight 0.18 in 0.0 iph
02/09/2018 14:57 Ice Warning 27.5F - - 32F 20 0% - - 99% 0 mhos 48 - Snow Slight 0.18 in 0.0 iph
02/09/2018 14:47 Ice Warning 28.0F - - 32F 20 0% - - 99% 1 mhos 99 - Snow Slight 0.18 in 0.0 iph
02/09/2018 14:44 Ice Warning 27.3F - - 32F 15 0% - - 99% 1 mhos 90 - Snow Slight 0.18 in 0.0 iph
02/09/2018 14:37 Ice Warning 27.3F - - 32F 15 0% - - 99% 1 mhos 119 - Snow Slight 0.18 in 0.0 iph
02/09/2018 14:29 Ice Warning 29.8F - - 32F 15 1% - - 96% 2 mhos 189 - Snow Slight 0.18 in 0.0 iph
02/09/2018 14:26 Ice Warning 30.4F - - 32F 15 1% - - 95% 2 mhos 180 - Snow Slight 0.18 in 0.0 iph
02/09/2018 14:16 Ice Warning 30.9F - - 32F 10 1% - - 93% 2 mhos 184 - Snow Slight 0.18 in 0.0 iph
02/09/2018 14:14 Ice Warning 29.8F - - 32F 10 1% - - 96% 2 mhos 198 - Snow Slight 0.18 in 0.0 iph
02/09/2018 14:06 Chemically Wet 31.8F - - 32F 10 1% - - 57% 2 mhos 173 - Snow Slight 0.18 in 0.0 iph
02/09/2018 13:59 Wet 32.2F - - 32F 5 1% 0.00 in - 0% 2 mhos 169 - Snow Slight 0.18 in 0.0 iph
02/09/2018 13:56 Chemically Wet 31.6F - - 32F 5 1% - - 78% 2 mhos 170 - Snow Slight 0.18 in 0.0 iph
02/09/2018 13:46 Ice Warning 31.3F - - 32F 5 1% - - 91% 2 mhos 177 - Snow Slight 0.18 in 0.0 iph
02/09/2018 13:44 Chemically Wet 31.6F - - 32F 5 1% - - 80% 1 mhos 152 - Snow Slight 0.18 in 0.0 iph
Date/Time
(MST)
Sf
Temp Chem Water Layer Surface Precipitation
Sfc Pvt Sub Frz Factor Pct Dpth DpthThk IcePct Cond Salin FI Type Intens Accum Rate
02/09/2018 13:36 Ice Warning 28.9F - - 32F 5 1% - - 97% 1 mhos 172 - Snow Slight 0.18 in 0.0 iph
02/09/2018 13:29 Ice Warning 30.9F - - 32F 5 0% - - 95% 1 mhos 115 - Snow Slight 0.18 in 0.0 iph
02/09/2018 13:26 Ice Warning 30.6F - - 32F 5 0% - - 97% 1 mhos 111 - None None 0.18 in 0.0 iph
02/09/2018 13:16 Ice Warning 29.7F - - 32F 5 0% - - 98% 1 mhos 107 - Snow Slight 0.18 in 0.0 iph
02/09/2018 13:14 Ice Warning 30.0F - - 32F 5 0% - - 98% 1 mhos 99 - Snow Slight 0.18 in 0.0 iph
02/09/2018 13:06 Ice Warning 30.2F - - 32F 5 0% - - 98% 1 mhos 86 - Snow Slight 0.18 in 0.0 iph
02/09/2018 12:59 Ice Warning 30.2F - - 32F 5 0% - - 99% 0 mhos 26 - Snow Slight 0.18 in 0.0 iph
02/09/2018 12:56 Ice Warning 29.7F - - 32F 5 0% - - 99% 0 mhos 27 - Snow Slight 0.18 in 0.0 iph
02/09/2018 12:46 Ice Warning 27.1F - - 32F 5 0% - - 100% 0 mhos 20 - Snow Slight 0.18 in 0.0 iph
02/09/2018 12:44 Ice Warning 27.1F - - 32F 5 0% - - 100% 0 mhos 17 - Snow Slight 0.18 in 0.0 iph
02/09/2018 12:36 Ice Warning 26.8F - - 32F 5 0% - - 100% 0 mhos 10 - Snow Slight 0.17 in 0.0 iph
02/09/2018 12:29 Ice Warning 26.1F - - 32F 5 0% - - 100% 0 mhos 6 - Snow Slight 0.17 in 0.0 iph
02/09/2018 12:26 Ice Warning 25.9F - - 32F 5 0% - - 100% 0 mhos 5 - Snow Slight 0.17 in 0.0 iph
02/09/2018 12:16 Ice Warning 23.5F - - 32F 5 0% - - 100% 0 mhos 3 - Snow Slight 0.17 in 0.0 iph
02/09/2018 12:14 Ice Warning 22.6F - - 32F 5 0% - - 100% 0 mhos 3 - Snow Slight 0.17 in 0.0 iph
Date/Time
(MST)
Sf
Temp Chem Water Layer Surface Precipitation
Sfc Pvt Sub Frz Factor Pct Dpth DpthThk IcePct Cond Salin FI Type Intens Accum Rate
02/09/2018 12:06 Ice Warning 21.9F - - 32F 5 0% - - 100% 0 mhos 3 - Snow Slight 0.17 in 0.0 iph
02/09/2018 11:59 Ice Warning 20.8F - - 32F 5 0% - - 100% 0 mhos 2 - Snow Slight 0.17 in 0.0 iph
02/09/2018 11:56 Ice Warning 20.3F - - 32F 5 0% - - 100% 0 mhos 2 - Snow Slight 0.17 in 0.0 iph
02/09/2018 11:46 Ice Warning 17.2F - - 32F 5 0% - - 100% 0 mhos 2 - Snow Slight 0.17 in 0.0 iph
02/09/2018 11:44 Ice Warning 16.2F - - 32F 5 0% - - 100% 0 mhos 2 - Snow Slight 0.17 in 0.0 iph
02/09/2018 11:36 Ice Warning 14.0F - - 32F 5 0% - - 100% 0 mhos 2 - Snow Slight 0.17 in 0.0 iph
02/09/2018 11:29 Ice Warning 13.8F - - 32F 5 0% - - 100% 0 mhos 2 - Snow Slight 0.17 in 0.0 iph
02/09/2018 11:26 Ice Warning 14.0F - - 32F 5 0% - - 100% 0 mhos 2 - Snow Slight 0.16 in 0.0 iph
02/09/2018 11:16 Ice Warning 14.9F - - 32F 5 0% - - 100% 0 mhos 2 - Snow Slight 0.16 in 0.0 iph
02/09/2018 11:14 Ice Warning 14.9F - - 32F 5 0% - - 100% 0 mhos 2 - Snow Slight 0.16 in 0.0 iph
02/09/2018 11:06 Ice Warning 15.6F - - 32F 5 0% - - 100% 0 mhos 2 - Snow Slight 0.16 in 0.0 iph
02/09/2018 10:59 Ice Warning 15.3F - - 32F 5 0% - - 100% 0 mhos 2 - Snow Slight 0.16 in 0.0 iph
02/09/2018 10:56 Ice Warning 14.5F - - 32F 5 0% - - 100% 0 mhos 2 - Snow Slight 0.16 in 0.0 iph
02/09/2018 10:46 Ice Warning 13.8F - - 32F 5 0% - - 100% 0 mhos 2 - Snow Slight 0.16 in 0.0 iph
02/09/2018 10:44 Ice Warning 13.8F - - 32F 5 0% - - 100% 0 mhos 2 - Snow Slight 0.16 in 0.0 iph
Date/Time
(MST)
Sf
Temp Chem Water Layer Surface Precipitation
Sfc Pvt Sub Frz Factor Pct Dpth DpthThk IcePct Cond Salin FI Type Intens Accum Rate
02/09/2018 10:36 Ice Warning 14.2F - - 32F 5 0% - - 100% 0 mhos 2 - Snow Slight 0.16 in 0.0 iph
02/09/2018 10:29 Ice Warning 14.2F - - 32F 5 0% - - 100% 0 mhos 2 - Snow Slight 0.16 in 0.0 iph
02/09/2018 10:26 Ice Warning 14.2F - - 32F 5 0% - - 100% 0 mhos 2 - Snow Slight 0.16 in 0.0 iph
02/09/2018 10:16 Ice Warning 14.4F - - 32F 5 0% - - 100% 0 mhos 2 - Snow Slight 0.16 in 0.0 iph
02/09/2018 10:13 Ice Warning 14.4F - - 32F 5 0% - - 100% 0 mhos 2 - Snow Slight 0.16 in 0.0 iph
02/09/2018 10:06 Ice Warning 14.2F - - 32F 5 0% - - 100% 0 mhos 2 - Snow Slight 0.16 in 0.0 iph
02/09/2018 09:58 Ice Warning 14.2F - - 32F 5 0% - - 100% 0 mhos 2 - Snow Slight 0.16 in 0.0 iph
02/09/2018 09:56 Ice Warning 14.2F - - 32F 5 0% - - 100% 0 mhos 2 - Snow Slight 0.16 in 0.0 iph
02/09/2018 09:46 Ice Warning 14.2F - - 32F 5 0% - - 100% 0 mhos 2 - Snow Slight 0.16 in 0.0 iph
02/09/2018 09:43 Ice Warning 14.4F - - 32F 5 0% - - 100% 0 mhos 2 - Snow Slight 0.16 in 0.0 iph
02/09/2018 09:36 Ice Warning 14.5F - - 32F 5 0% - - 100% 0 mhos 2 - Snow Slight 0.16 in 0.0 iph
02/09/2018 09:28 Ice Warning 15.1F - - 32F 5 0% - - 100% 0 mhos 2 - Snow Slight 0.16 in 0.0 iph
02/09/2018 09:26 Ice Warning 14.4F - - 32F 5 0% - - 100% 0 mhos 2 - Snow Slight 0.16 in 0.0 iph
02/09/2018 09:16 Ice Warning 14.4F - - 32F 5 0% - - 100% 0 mhos 1 - Snow Slight 0.16 in 0.0 iph
02/09/2018 09:13 Ice Warning 14.2F - - 32F 5 0% - - 100% 0 mhos 1 - Snow Slight 0.16 in 0.0 iph
Date/Time
(MST)
Sf
Temp Chem Water Layer Surface Precipitation
Sfc Pvt Sub Frz Factor Pct Dpth DpthThk IcePct Cond Salin FI Type Intens Accum Rate
02/09/2018 09:06 Ice Warning 14.2F - - 32F 5 0% - - 100% 0 mhos 1 - Snow Slight 0.16 in 0.0 iph
02/09/2018 08:58 Ice Warning 14.2F - - 32F 5 0% - - 100% 0 mhos 1 - Snow Slight 0.16 in 0.0 iph
02/09/2018 08:56 Ice Warning 14.0F - - 32F 5 0% - - 100% 0 mhos 1 - Snow Slight 0.16 in 0.0 iph
02/09/2018 08:46 Ice Warning 13.5F - - 32F 5 0% - - 100% 0 mhos 1 - Snow Slight 0.16 in 0.0 iph
02/09/2018 08:43 Ice Warning 13.5F - - 32F 5 0% - - 100% 0 mhos 1 - Snow Slight 0.16 in 0.0 iph
02/09/2018 08:36 Ice Warning 13.5F - - 32F 5 0% - - 100% 0 mhos 1 - Snow Slight 0.16 in 0.0 iph
02/09/2018 08:28 Ice Warning 13.3F - - 32F 5 0% - - 100% 0 mhos 1 - Snow Slight 0.16 in 0.0 iph
02/09/2018 08:25 Ice Warning 13.3F - - 32F 5 0% - - 100% 0 mhos 1 - Snow Slight 0.16 in 0.0 iph
02/09/2018 08:15 Ice Warning 12.9F - - 32F 5 0% - - 100% 0 mhos 1 - Snow Slight 0.16 in 0.0 iph
02/09/2018 08:13 Ice Warning 12.9F - - 32F 5 0% - - 100% 0 mhos 1 - Snow Slight 0.16 in 0.0 iph
02/09/2018 08:05 Ice Warning 12.6F - - 32F 5 0% - - 100% 0 mhos 1 - Snow Slight 0.16 in 0.0 iph
02/09/2018 07:58 Ice Warning 12.6F - - 32F 5 0% - - 100% 0 mhos 1 - Snow Slight 0.16 in 0.0 iph
02/09/2018 07:55 Ice Warning 12.7F - - 32F 5 0% - - 100% 0 mhos 1 - Snow Slight 0.16 in 0.0 iph
02/09/2018 07:45 Ice Warning 12.6F - - 32F 5 0% - - 100% 0 mhos 1 - Snow Slight 0.15 in 0.0 iph
02/09/2018 07:43 Ice Warning 12.4F - - 32F 5 0% - - 100% 0 mhos 1 - Snow Slight 0.15 in 0.0 iph
Date/Time
(MST)
Sf
Temp Chem Water Layer Surface Precipitation
Sfc Pvt Sub Frz Factor Pct Dpth DpthThk IcePct Cond Salin FI Type Intens Accum Rate
02/09/2018 07:35 Ice Warning 12.4F - - 32F 5 0% - - 100% 0 mhos 1 - Snow Slight 0.15 in 0.0 iph
02/09/2018 07:28 Ice Warning 12.2F - - 32F 5 0% - - 100% 0 mhos 1 - Snow Slight 0.15 in 0.0 iph
02/09/2018 07:25 Ice Warning 12.2F - - 32F 5 0% - - 100% 0 mhos 1 - Snow Slight 0.15 in 0.0 iph
02/09/2018 07:15 Ice Warning 12.2F - - 32F 5 0% - - 100% 0 mhos 1 - Snow Slight 0.15 in 0.0 iph
02/09/2018 07:13 Ice Warning 12.4F - - 32F 5 0% - - 100% 0 mhos 1 - Snow Slight 0.15 in 0.0 iph
02/09/2018 07:05 Ice Warning 12.9F - - 32F 5 0% - - 100% 0 mhos 1 - Snow Slight 0.15 in 0.0 iph
02/09/2018 06:58 Ice Warning 12.7F - - 32F 5 0% - - 100% 0 mhos 1 - Snow Slight 0.15 in 0.0 iph
02/09/2018 06:55 Ice Warning 12.7F - - 32F 5 0% - - 100% 0 mhos 1 - Snow Slight 0.15 in 0.0 iph
02/09/2018 06:45 Ice Warning 13.1F - - 32F 5 0% - - 100% 0 mhos 1 - Snow Slight 0.15 in 0.0 iph
02/09/2018 06:44 Ice Warning 13.1F - - 32F 5 0% - - 100% 0 mhos 1 - Snow Slight 0.15 in 0.0 iph
02/09/2018 06:35 Ice Warning 13.6F - - 32F 5 0% - - 100% 0 mhos 1 - Snow Slight 0.15 in 0.0 iph
02/09/2018 06:28 Ice Warning 14.2F - - 32F 5 0% - - 100% 0 mhos 1 - Snow Slight 0.15 in 0.0 iph
02/09/2018 06:25 Ice Warning 14.0F - - 32F 5 0% - - 100% 0 mhos 1 - Snow Slight 0.15 in 0.0 iph
02/09/2018 06:15 Ice Warning 14.2F - - 32F 5 0% - - 100% 0 mhos 2 - Snow Slight 0.15 in 0.0 iph
02/09/2018 06:14 Ice Warning 14.5F - - 32F 5 0% - - 100% 0 mhos 2 - Snow Slight 0.15 in 0.0 iph
Date/Time
(MST)
Sf
Temp Chem Water Layer Surface Precipitation
Sfc Pvt Sub Frz Factor Pct Dpth DpthThk IcePct Cond Salin FI Type Intens Accum Rate
02/09/2018 06:05 Ice Warning 14.9F - - 32F 5 0% - - 100% 0 mhos 2 - Snow Slight 0.15 in 0.0 iph
02/09/2018 05:59 Ice Warning 14.9F - - 32F 5 0% - - 100% 0 mhos 2 - Snow Slight 0.15 in 0.0 iph
02/09/2018 05:55 Ice Warning 15.1F - - 32F 5 0% - - 100% 0 mhos 2 - Snow Slight 0.15 in 0.0 iph
02/09/2018 05:45 Ice Warning 14.9F - - 32F 5 0% - - 100% 0 mhos 2 - Snow Slight 0.15 in 0.0 iph
02/09/2018 05:44 Ice Warning 14.9F - - 32F 5 0% - - 100% 0 mhos 2 - Snow Slight 0.15 in 0.0 iph
02/09/2018 05:35 Ice Warning 14.7F - - 32F 5 0% - - 100% 0 mhos 2 - Snow Slight 0.15 in 0.0 iph
02/09/2018 05:29 Ice Warning 14.5F - - 32F 5 0% - - 100% 0 mhos 2 - Snow Slight 0.15 in 0.0 iph
02/09/2018 05:25 Ice Warning 14.5F - - 32F 5 0% - - 100% 0 mhos 2 - Snow Slight 0.15 in 0.0 iph
02/09/2018 05:15 Ice Warning 14.9F - - 32F 5 0% - - 100% 0 mhos 2 - Snow Slight 0.15 in 0.0 iph
02/09/2018 05:14 Ice Warning 14.9F - - 32F 5 0% - - 100% 0 mhos 2 - Snow Slight 0.15 in 0.0 iph
02/09/2018 05:05 Ice Warning 15.3F - - 32F 5 0% - - 100% 0 mhos 2 - Snow Slight 0.15 in 0.0 iph
02/09/2018 04:59 Ice Warning 15.8F - - 32F 5 0% - - 100% 0 mhos 2 - Snow Slight 0.15 in 0.0 iph
02/09/2018 04:55 Ice Warning 16.5F - - 32F 5 0% - - 100% 0 mhos 2 - Snow Slight 0.15 in 0.0 iph
02/09/2018 04:45 Ice Warning 18.9F - - 32F 5 0% - - 100% 0 mhos 2 - Snow Slight 0.15 in 0.0 iph
02/09/2018 04:44 Ice Warning 18.9F - - 32F 5 0% - - 100% 0 mhos 2 - Snow Slight 0.15 in 0.0 iph
Date/Time
(MST)
Sf
Temp Chem Water Layer Surface Precipitation
Sfc Pvt Sub Frz Factor Pct Dpth DpthThk IcePct Cond Salin FI Type Intens Accum Rate
02/09/2018 04:35 Ice Warning 19.4F - - 32F 5 0% - - 100% 0 mhos 2 - Snow Slight 0.15 in 0.0 iph
02/09/2018 04:29 Ice Warning 19.8F - - 32F 5 0% - - 100% 0 mhos 3 - Snow Slight 0.15 in 0.0 iph
02/09/2018 04:25 Ice Warning 20.1F - - 32F 5 0% - - 100% 0 mhos 3 - Snow Slight 0.15 in 0.0 iph
02/09/2018 04:15 Ice Warning 21.0F - - 32F 5 0% - - 100% 0 mhos 3 - Snow Slight 0.15 in 0.0 iph
02/09/2018 04:14 Ice Warning 21.0F - - 32F 5 0% - - 100% 0 mhos 3 - Snow Slight 0.15 in 0.0 iph
02/09/2018 04:05 Ice Warning 21.0F - - 32F 5 0% - - 100% 0 mhos 3 - Snow Slight 0.15 in 0.0 iph
02/09/2018 03:59 Ice Warning 21.0F - - 32F 5 0% - - 100% 0 mhos 3 - Snow Slight 0.15 in 0.0 iph
02/09/2018 03:55 Ice Warning 21.0F - - 32F 5 0% - - 100% 0 mhos 3 - Snow Slight 0.15 in 0.0 iph
02/09/2018 03:45 Ice Warning 21.0F - - 32F 5 0% - - 100% 0 mhos 3 - Snow Slight 0.15 in 0.0 iph
02/09/2018 03:44 Ice Warning 21.0F - - 32F 5 0% - - 100% 0 mhos 3 - Snow Slight 0.15 in 0.0 iph
02/09/2018 03:35 Ice Warning 20.8F - - 32F 5 0% - - 100% 0 mhos 3 - Snow Slight 0.15 in 0.0 iph
02/09/2018 03:29 Ice Warning 20.8F - - 32F 5 0% - - 100% 0 mhos 3 - Snow Slight 0.15 in 0.0 iph
02/09/2018 03:25 Ice Warning 20.8F - - 32F 5 0% - - 100% 0 mhos 3 - None None 0.15 in 0.0 iph
02/09/2018 03:15 Ice Warning 20.8F - - 32F 5 0% - - 100% 0 mhos 3 - None None 0.15 in 0.0 iph
02/09/2018 03:14 Ice Warning 20.8F - - 32F 5 0% - - 100% 0 mhos 3 - None None 0.15 in 0.0 iph
Date/Time
(MST)
Sf
Temp Chem Water Layer Surface Precipitation
Sfc Pvt Sub Frz Factor Pct Dpth DpthThk IcePct Cond Salin FI Type Intens Accum Rate
02/09/2018 03:05 Ice Warning 20.8F - - 32F 5 0% - - 100% 0 mhos 3 - Snow Slight 0.15 in 0.0 iph
02/09/2018 02:59 Ice Warning 20.8F - - 32F 5 0% - - 100% 0 mhos 3 - Snow Slight 0.15 in 0.0 iph
02/09/2018 02:55 Ice Warning 20.8F - - 32F 5 0% - - 100% 0 mhos 2 - Snow Slight 0.15 in 0.0 iph
02/09/2018 02:45 Ice Warning 20.8F - - 32F 5 0% - - 100% 0 mhos 2 - Snow Slight 0.15 in 0.0 iph
02/09/2018 02:44 Ice Warning 20.8F - - 32F 5 0% - - 100% 0 mhos 2 - Snow Slight 0.15 in 0.0 iph
02/09/2018 02:35 Ice Warning 20.7F - - 32F 5 0% - - 100% 0 mhos 2 - Snow Slight 0.15 in 0.0 iph
02/09/2018 02:29 Ice Warning 20.7F - - 32F 5 0% - - 100% 0 mhos 2 - Snow Slight 0.15 in 0.0 iph
02/09/2018 02:25 Ice Warning 20.7F - - 32F 5 0% - - 100% 0 mhos 2 - Snow Slight 0.15 in 0.0 iph
02/09/2018 02:15 Ice Warning 20.5F - - 32F 5 0% - - 100% 0 mhos 2 - Snow Slight 0.15 in 0.0 iph
02/09/2018 02:14 Ice Warning 20.5F - - 32F 5 0% - - 100% 0 mhos 2 - Snow Slight 0.15 in 0.0 iph
02/09/2018 02:05 Ice Warning 20.3F - - 32F 5 0% - - 100% 0 mhos 2 - Snow Slight 0.15 in 0.0 iph
02/09/2018 01:59 Ice Warning 20.3F - - 32F 5 0% - - 100% 0 mhos 2 - Snow Slight 0.15 in 0.0 iph
02/09/2018 01:55 Ice Warning 20.3F - - 32F 5 0% - - 100% 0 mhos 2 - Snow Slight 0.15 in 0.0 iph
02/09/2018 01:45 Ice Warning 20.3F - - 32F 5 0% - - 100% 0 mhos 2 - Snow Slight 0.15 in 0.0 iph
02/09/2018 01:44 Ice Warning 20.3F - - 32F 5 0% - - 100% 0 mhos 2 - Snow Slight 0.15 in 0.0 iph
Date/Time
(MST)
Sf
Temp Chem Water Layer Surface Precipitation
Sfc Pvt Sub Frz Factor Pct Dpth DpthThk IcePct Cond Salin FI Type Intens Accum Rate
02/09/2018 01:34 Ice Warning 20.3F - - 32F 5 0% - - 100% 0 mhos 2 - Snow Slight 0.15 in 0.0 iph
02/09/2018 01:29 Ice Warning 20.1F - - 32F 5 0% - - 100% 0 mhos 2 - Snow Slight 0.15 in 0.0 iph
02/09/2018 01:24 Ice Warning 20.1F - - 32F 5 0% - - 100% 0 mhos 2 - Snow Slight 0.15 in 0.0 iph
02/09/2018 01:14 Ice Warning 19.9F - - 32F 5 0% - - 100% 0 mhos 2 - Snow Slight 0.15 in 0.0 iph
02/09/2018 01:14 Ice Warning 19.9F - - 32F 5 0% - - 100% 0 mhos 2 - Snow Slight 0.15 in 0.0 iph
02/09/2018 01:04 Ice Warning 19.8F - - 32F 5 0% - - 100% 0 mhos 2 - Snow Slight 0.15 in 0.0 iph
02/09/2018 00:59 Ice Warning 19.8F - - 32F 5 0% - - 100% 0 mhos 2 - Snow Slight 0.15 in 0.0 iph
02/09/2018 00:54 Ice Warning 19.6F - - 32F 5 0% - - 100% 0 mhos 2 - Snow Slight 0.15 in 0.0 iph
02/09/2018 00:44 Ice Warning 19.4F - - 32F 5 0% - - 100% 0 mhos 2 - Snow Slight 0.15 in 0.0 iph
02/09/2018 00:44 Ice Warning 19.2F - - 32F 5 0% - - 100% 0 mhos 2 - Snow Slight 0.15 in 0.0 iph
02/09/2018 00:34 Ice Warning 19.2F - - 32F 5 0% - - 100% 0 mhos 2 - Snow Slight 0.15 in 0.0 iph
02/09/2018 00:29 Ice Warning 19.0F - - 32F 5 0% - - 100% 0 mhos 2 - Snow Slight 0.15 in 0.0 iph
02/09/2018 00:24 Ice Warning 18.9F - - 32F 5 0% - - 100% 0 mhos 2 - Snow Slight 0.15 in 0.0 iph
02/09/2018 00:14 Ice Warning 18.5F - - 32F 5 0% - - 100% 0 mhos 1 - Snow Moderate 0.15 in 0.0 iph
02/09/2018 00:14 Ice Warning 18.5F - - 32F 5 0% - - 100% 0 mhos 1 - Snow Moderate 0.15 in 0.1 iph
Date/Time
(MST)
Sf
Temp Chem Water Layer Surface Precipitation
Sfc Pvt Sub Frz Factor Pct Dpth DpthThk IcePct Cond Salin FI Type Intens Accum Rate
02/09/2018 00:04 Ice Warning 18.3F - - 32F 5 0% - - 100% 0 mhos 1 - Snow Moderate 0.14 in 0.1 iph
02/08/2018 23:59 Ice Warning 18.0F - - 32F 5 0% - - 100% 0 mhos 1 - Snow Slight 0.13 in 0.1 iph
02/08/2018 23:54 Ice Warning 18.0F - - 32F 5 0% - - 100% 0 mhos 1 - Snow Slight 0.13 in 0.0 iph
02/08/2018 23:44 Ice Warning 17.6F - - 32F 5 0% - - 100% 0 mhos 1 - Snow Slight 0.13 in 0.0 iph
02/08/2018 23:44 Ice Warning 17.6F - - 32F 5 0% - - 100% 0 mhos 1 - Snow Slight 0.13 in 0.0 iph
02/08/2018 23:34 Ice Warning 17.2F - - 32F 5 0% - - 100% 0 mhos 1 - Snow Slight 0.13 in 0.0 iph
02/08/2018 23:29 Ice Warning 17.1F - - 32F 5 0% - - 100% 0 mhos 1 - Snow Slight 0.13 in 0.0 iph
02/08/2018 23:24 Ice Warning 16.9F - - 32F 5 0% - - 100% 0 mhos 1 - Snow Slight 0.12 in 0.0 iph
02/08/2018 23:14 Ice Warning 17.1F - - 32F 5 0% - - 100% 0 mhos 1 - Snow Slight 0.12 in 0.0 iph
02/08/2018 23:14 Ice Warning 17.2F - - 32F 5 0% - - 100% 0 mhos 1 - Snow Slight 0.12 in 0.0 iph
02/08/2018 23:04 Ice Warning 17.2F - - 32F 5 0% - - 100% 0 mhos 1 - Snow Slight 0.12 in 0.0 iph
02/08/2018 22:59 Ice Warning 17.1F - - 32F 5 0% - - 100% 0 mhos 1 - Snow Moderate 0.11 in 0.0 iph
02/08/2018 22:54 Ice Warning 16.7F - - 32F 5 0% - - 100% 0 mhos 1 - Snow Moderate 0.11 in 0.1 iph
02/08/2018 22:44 Ice Warning 16.0F - - 32F 5 0% - - 100% 0 mhos 1 - Snow Slight 0.10 in 0.0 iph
02/08/2018 22:43 Ice Warning 16.0F - - 32F 5 0% - - 100% 0 mhos 1 - Snow Moderate 0.10 in 0.0 iph
Date/Time
(MST)
Sf
Temp Chem Water Layer Surface Precipitation
Sfc Pvt Sub Frz Factor Pct Dpth DpthThk IcePct Cond Salin FI Type Intens Accum Rate
02/08/2018 22:34 Ice Warning 15.3F - - 32F 5 0% - - 100% 0 mhos 1 - Snow Slight 0.09 in 0.0 iph
02/08/2018 22:28 Ice Warning 14.9F - - 32F 5 0% - - 100% 0 mhos 1 - Snow Slight 0.09 in 0.0 iph
02/08/2018 22:24 Ice Warning 15.1F - - 32F 5 0% - - 100% 0 mhos 1 - Snow Slight 0.09 in 0.0 iph
02/08/2018 22:14 Ice Warning 15.4F - - 32F 5 0% - - 100% 0 mhos 1 - None None 0.09 in 0.0 iph
02/08/2018 22:13 Ice Warning 15.3F - - 32F 5 0% - - 100% 0 mhos 1 - None None 0.09 in 0.0 iph
02/08/2018 22:04 Ice Warning 15.6F - - 32F 5 0% - - 100% 0 mhos 1 - None None 0.09 in 0.0 iph
02/08/2018 21:58 Ice Warning 16.0F - - 32F 5 0% - - 100% 0 mhos 1 - Snow Slight 0.09 in 0.0 iph
02/08/2018 21:54 Ice Warning 16.2F - - 32F 5 0% - - 100% 0 mhos 1 - Snow Slight 0.09 in 0.0 iph
02/08/2018 21:44 Ice Warning 16.3F - - 32F 5 0% - - 100% 0 mhos 1 - Snow Slight 0.09 in 0.0 iph
02/08/2018 21:44 Ice Warning 16.3F - - 32F 5 0% - - 100% 0 mhos 1 - Snow Slight 0.09 in 0.0 iph
02/08/2018 21:34 Ice Warning 17.4F - - 32F 5 0% - - 100% 0 mhos 1 - Snow Slight 0.09 in 0.0 iph
02/08/2018 21:29 Ice Warning 18.5F - - 32F 5 0% - - 100% 0 mhos 1 - Snow Slight 0.09 in 0.0 iph
02/08/2018 21:24 Ice Warning 18.5F - - 32F 5 0% - - 100% 0 mhos 1 - Snow Slight 0.09 in 0.0 iph
02/08/2018 21:14 Ice Warning 18.5F - - 32F 5 0% - - 100% 0 mhos 1 - Snow Slight 0.09 in 0.0 iph
02/08/2018 21:14 Ice Warning 18.5F - - 32F 5 0% - - 100% 0 mhos 1 - Snow Slight 0.09 in 0.0 iph
Date/Time
(MST)
Sf
Temp Chem Water Layer Surface Precipitation
Sfc Pvt Sub Frz Factor Pct Dpth DpthThk IcePct Cond Salin FI Type Intens Accum Rate
02/08/2018 21:04 Ice Warning 18.3F - - 32F 5 0% - - 100% 0 mhos 1 - Snow Slight 0.09 in 0.0 iph
02/08/2018 20:58 Ice Warning 18.3F - - 32F 5 0% - - 100% 0 mhos 1 - Snow Slight 0.09 in 0.0 iph
02/08/2018 20:54 Ice Warning 18.3F - - 32F 5 0% - - 100% 0 mhos 1 - Snow Slight 0.09 in 0.0 iph
02/08/2018 20:44 Ice Warning 18.3F - - 32F 5 0% - - 100% 0 mhos 1 - Snow Slight 0.09 in 0.0 iph
02/08/2018 20:44 Ice Warning 18.3F - - 32F 5 0% - - 100% 0 mhos 1 - Snow Slight 0.09 in 0.0 iph
02/08/2018 20:34 Ice Warning 18.3F - - 32F 5 0% - - 100% 0 mhos 1 - Snow Slight 0.09 in 0.0 iph
02/08/2018 20:29 Ice Warning 18.3F - - 32F 5 0% - - 100% 0 mhos 1 - Snow Slight 0.09 in 0.0 iph
02/08/2018 20:24 Ice Warning 18.3F - - 32F 5 0% - - 100% 0 mhos 1 - Snow Slight 0.09 in 0.0 iph
02/08/2018 20:14 Ice Warning 18.1F - - 32F 5 0% - - 100% 0 mhos 1 - Snow Slight 0.09 in 0.0 iph
02/08/2018 20:14 Ice Warning 18.1F - - 32F 5 0% - - 100% 0 mhos 1 - Snow Slight 0.09 in 0.0 iph
02/08/2018 20:04 Ice Warning 17.2F - - 32F 5 0% - - 100% 0 mhos 1 - Snow Heavy 0.08 in 0.0 iph
02/08/2018 19:58 Ice Warning 16.7F - - 32F 5 0% - - 100% 0 mhos 1 - Snow Heavy 0.08 in 0.1 iph
02/08/2018 19:54 Ice Warning 17.2F - - 32F 5 0% - - 100% 0 mhos 1 - Snow Moderate 0.07 in 0.2 iph
02/08/2018 19:44 Ice Warning 19.8F - - 32F 5 0% - - 100% 0 mhos 2 - Snow Slight 0.06 in 0.0 iph
02/08/2018 19:43 Ice Warning 19.8F - - 32F 5 0% - - 100% 0 mhos 2 - Snow Slight 0.06 in 0.0 iph
Date/Time
(MST)
Sf
Temp Chem Water Layer Surface Precipitation
Sfc Pvt Sub Frz Factor Pct Dpth DpthThk IcePct Cond Salin FI Type Intens Accum Rate
02/08/2018 19:34 Ice Warning 22.1F - - 32F 5 0% - - 100% 0 mhos 2 - Snow Slight 0.06 in 0.0 iph
02/08/2018 19:28 Ice Warning 21.6F - - 32F 5 0% - - 100% 0 mhos 2 - Snow Slight 0.06 in 0.0 iph
02/08/2018 19:24 Ice Warning 21.7F - - 32F 5 0% - - 100% 0 mhos 2 - Snow Slight 0.06 in 0.0 iph
02/08/2018 19:14 Ice Warning 21.7F - - 32F 5 0% - - 100% 0 mhos 2 - Snow Slight 0.05 in 0.0 iph
02/08/2018 19:14 Ice Warning 21.7F - - 32F 5 0% - - 100% 0 mhos 2 - Snow Slight 0.05 in 0.0 iph
02/08/2018 19:03 Ice Warning 22.1F - - 32F 5 0% - - 100% 0 mhos 2 - Snow Slight 0.05 in 0.0 iph
02/08/2018 18:58 Ice Warning 21.9F - - 32F 5 0% - - 100% 0 mhos 2 - Snow Slight 0.05 in 0.0 iph
02/08/2018 18:53 Ice Warning 21.9F - - 32F 5 0% - - 100% 0 mhos 2 - Snow Slight 0.05 in 0.0 iph
02/08/2018 18:44 Ice Warning 21.2F - - 32F 5 0% - - 100% 0 mhos 2 - Snow Slight 0.05 in 0.1 iph
02/08/2018 18:43 Ice Warning 21.2F - - 32F 5 0% - - 100% 0 mhos 2 - Snow Slight 0.05 in 0.1 iph
02/08/2018 18:33 Ice Warning 21.7F - - 32F 5 0% - - 100% 0 mhos 2 - Snow Slight 0.04 in 0.0 iph
02/08/2018 18:28 Ice Warning 22.1F - - 32F 5 0% - - 100% 0 mhos 2 - Snow Slight 0.04 in 0.0 iph
02/08/2018 18:23 Ice Warning 22.3F - - 32F 5 0% - - 100% 0 mhos 2 - Snow Slight 0.04 in 0.0 iph
02/08/2018 18:13 Ice Warning 22.8F - - 32F 5 0% - - 100% 0 mhos 2 - Snow Slight 0.04 in 0.0 iph
02/08/2018 18:13 Ice Warning 22.8F - - 32F 5 0% - - 100% 0 mhos 2 - Snow Slight 0.04 in 0.0 iph
Change End Date:

Copyright © 1998-2015 Vaisala, Inc.
All Rights Reserved
Send comments about the data to:
SCAN Web ® is a registered trademark of Vaisala, Inc.
SCAN Web Version 6.0